• In India
  • List of Countries
  • For 7 days
  • Water Temperature
  • Satellite Maps
  • Weather Map
  • Weather Widgets
  • user-avatar
    Login

    Hourly Weather Algiers

    Today, 12 December, Tuesday

    Time Temperature Precipitation Wind Pressure Humidity
    00:00 +12°C° 0 mm 7 mps 743 mmHg 71%
    01:00 +11°C° 0.2 mm 6 mps 743 mmHg 72%
    02:00 +12°C° 0.2 mm 5 mps 743 mmHg 74%
    03:00 +12°C° 0.2 mm 5 mps 743 mmHg 76%
    04:00 +12°C° 0.1 mm 4 mps 744 mmHg 76%
    05:00 +12°C° 0.1 mm 4 mps 744 mmHg 76%
    06:00 +11°C° 0.1 mm 4 mps 745 mmHg 77%
    07:00 +12°C° 0.1 mm 4 mps 745 mmHg 73%
    08:00 +12°C° 0.1 mm 3 mps 746 mmHg 70%
    09:00 +13°C° 0.1 mm 3 mps 746 mmHg 66%
    10:00 +13°C° 0.2 mm 3 mps 747 mmHg 65%
    11:00 +13°C° 0.2 mm 3 mps 747 mmHg 65%
    12:00 +13°C° 0.2 mm 3 mps 748 mmHg 64%
    13:00 +14°C° 0.3 mm 2 mps 748 mmHg 66%
    14:00 +14°C° 0.3 mm 2 mps 748 mmHg 67%
    15:00 +14°C° 0.3 mm 2 mps 748 mmHg 69%
    16:00 +14°C° 0.6 mm 2 mps 749 mmHg 74%
    17:00 +13°C° 0.6 mm 2 mps 749 mmHg 79%
    18:00 +12°C° 0.6 mm 2 mps 750 mmHg 84%
    19:00 +12°C° 0.9 mm 2 mps 751 mmHg 86%
    20:00 +12°C° 0.9 mm 2 mps 752 mmHg 87%
    21:00 +12°C° 0.9 mm 1 mps 752 mmHg 89%
    22:00 +12°C° 0.7 mm 1 mps 753 mmHg 89%
    23:00 +12°C° 0.7 mm 1 mps 753 mmHg 89%

    Tomorrow, 13 December, Wednesday

    Time Temperature Precipitation Wind Pressure Humidity
    00:00 +12°C° 0.7 mm 1 mps 754 mmHg 89%
    01:00 +12°C° 0.5 mm 1 mps 754 mmHg 89%
    02:00 +12°C° 0.5 mm 1 mps 755 mmHg 89%
    03:00 +12°C° 0.5 mm 1 mps 755 mmHg 89%
    04:00 +11°C° 0.1 mm 1 mps 755 mmHg 89%
    05:00 +11°C° 0.1 mm 1 mps 755 mmHg 89%
    06:00 +11°C° 0.1 mm 1 mps 756 mmHg 90%
    07:00 +12°C° 0 mm 1 mps 756 mmHg 87%
    08:00 +12°C° 0 mm 1 mps 757 mmHg 84%
    09:00 +13°C° 0 mm 2 mps 757 mmHg 80%
    10:00 +13°C° 0 mm 2 mps 757 mmHg 75%
    11:00 +14°C° 0 mm 2 mps 757 mmHg 70%
    12:00 +15°C° 0 mm 2 mps 757 mmHg 65%
    13:00 +15°C° 0 mm 2 mps 757 mmHg 65%
    14:00 +15°C° 0 mm 1 mps 757 mmHg 64%
    15:00 +15°C° 0 mm 1 mps 757 mmHg 64%
    16:00 +14°C° 0 mm 1 mps 757 mmHg 68%
    17:00 +13°C° 0 mm 1 mps 757 mmHg 72%
    18:00 +12°C° 0 mm 1 mps 757 mmHg 76%
    19:00 +12°C° 0 mm 1 mps 757 mmHg 78%
    20:00 +12°C° 0 mm 1 mps 758 mmHg 80%
    21:00 +10°C° 0 mm 2 mps 758 mmHg 82%
    22:00 +10°C° 0 mm 2 mps 757 mmHg 81%
    23:00 +10°C° 0 mm 2 mps 757 mmHg 80%

    Day after tomorrow, 14 December, Thursday

    Time Temperature Precipitation Wind Pressure Humidity
    00:00 +10°C° 0 mm 3 mps 757 mmHg 79%
    01:00 +10°C° 0 mm 3 mps 757 mmHg 78%
    02:00 +10°C° 0 mm 3 mps 756 mmHg 77%
    03:00 +10°C° 0 mm 3 mps 756 mmHg 76%
    04:00 +10°C° 0 mm 3 mps 756 mmHg 76%
    05:00 +10°C° 0 mm 4 mps 756 mmHg 75%
    06:00 +8°C° 0 mm 4 mps 755 mmHg 75%
    07:00 +11°C° 0 mm 4 mps 755 mmHg 70%
    08:00 +12°C° 0 mm 4 mps 755 mmHg 66%
    09:00 +14°C° 0 mm 4 mps 755 mmHg 61%
    10:00 +17°C° 0 mm 4 mps 755 mmHg 55%
    11:00 +18°C° 0 mm 4 mps 754 mmHg 48%
    12:00 +20°C° 0 mm 4 mps 754 mmHg 41%
    13:00 +20°C° 0 mm 4 mps 753 mmHg 42%
    14:00 +20°C° 0 mm 3 mps 753 mmHg 43%
    15:00 +20°C° 0 mm 3 mps 752 mmHg 43%
    16:00 +18°C° 0 mm 3 mps 752 mmHg 47%
    17:00 +17°C° 0 mm 3 mps 752 mmHg 50%
    18:00 +14°C° 0 mm 3 mps 752 mmHg 54%
    19:00 +14°C° 0 mm 3 mps 752 mmHg 53%
    20:00 +14°C° 0 mm 3 mps 752 mmHg 51%
    21:00 +14°C° 0 mm 3 mps 752 mmHg 50%
    22:00 +13°C° 0 mm 3 mps 751 mmHg 50%
    23:00 +13°C° 0 mm 4 mps 751 mmHg 50%

    15 December, Friday

    Time Temperature Precipitation Wind Pressure Humidity
    00:00 +13°C° 0 mm 4 mps 751 mmHg 50%
    01:00 +13°C° 0 mm 4 mps 750 mmHg 50%
    02:00 +12°C° 0 mm 4 mps 750 mmHg 50%
    03:00 +12°C° 0 mm 4 mps 749 mmHg 50%
    04:00 +12°C° 0 mm 4 mps 749 mmHg 50%
    05:00 +12°C° 0 mm 4 mps 749 mmHg 49%
    06:00 +11°C° 0 mm 4 mps 749 mmHg 49%
    07:00 +13°C° 0 mm 4 mps 749 mmHg 47%
    08:00 +14°C° 0 mm 4 mps 749 mmHg 45%
    09:00 +15°C° 0 mm 4 mps 749 mmHg 44%
    10:00 +18°C° 0 mm 4 mps 749 mmHg 39%
    11:00 +19°C° 0 mm 4 mps 748 mmHg 35%
    12:00 +21°C° 0 mm 4 mps 748 mmHg 30%
    13:00 +21°C° 0 mm 5 mps 747 mmHg 33%
    14:00 +21°C° 0 mm 5 mps 747 mmHg 35%
    15:00 +20°C° 0 mm 5 mps 746 mmHg 37%
    16:00 +17°C° 0 mm 5 mps 746 mmHg 46%
    17:00 +15°C° 0 mm 5 mps 747 mmHg 55%
    18:00 +14°C° 0 mm 4 mps 747 mmHg 64%
    19:00 +13°C° 0 mm 4 mps 747 mmHg 67%
    20:00 +13°C° 0 mm 3 mps 747 mmHg 70%
    21:00 +14°C° 0 mm 2 mps 748 mmHg 73%
    22:00 +13°C° 0.2 mm 2 mps 748 mmHg 72%
    23:00 +13°C° 0.2 mm 2 mps 748 mmHg 72%

    16 December, Saturday

    Time Temperature Precipitation Wind Pressure Humidity
    00:00 +13°C° 0.2 mm 2 mps 747 mmHg 71%
    01:00 +13°C° 0.2 mm 2 mps 747 mmHg 74%
    02:00 +13°C° 0.2 mm 2 mps 747 mmHg 77%
    03:00 +13°C° 0.2 mm 2 mps 747 mmHg 80%
    04:00 +13°C° 0.2 mm 2 mps 747 mmHg 83%
    05:00 +13°C° 0.2 mm 2 mps 747 mmHg 86%
    06:00 +13°C° 0.2 mm 2 mps 747 mmHg 89%
    07:00 +12°C° 0.5 mm 3 mps 748 mmHg 90%
    08:00 +12°C° 0.5 mm 3 mps 748 mmHg 91%
    09:00 +12°C° 0.5 mm 3 mps 749 mmHg 92%
    10:00 +13°C° 0.4 mm 4 mps 749 mmHg 88%
    11:00 +13°C° 0.4 mm 4 mps 749 mmHg 85%
    12:00 +14°C° 0.4 mm 4 mps 749 mmHg 82%
    13:00 +13°C° 0.3 mm 4 mps 749 mmHg 81%
    14:00 +13°C° 0.3 mm 4 mps 749 mmHg 81%
    15:00 +13°C° 0.3 mm 4 mps 748 mmHg 81%
    16:00 +13°C° 0.3 mm 3 mps 749 mmHg 83%
    17:00 +12°C° 0.3 mm 3 mps 749 mmHg 85%
    18:00 +11°C° 0.3 mm 3 mps 750 mmHg 87%
    19:00 +11°C° 0.3 mm 3 mps 750 mmHg 87%
    20:00 +11°C° 0.3 mm 3 mps 750 mmHg 86%
    21:00 +11°C° 0.3 mm 3 mps 751 mmHg 86%
    22:00 +10°C° 0.2 mm 3 mps 751 mmHg 86%
    23:00 +10°C° 0.2 mm 3 mps 751 mmHg 86%

    17 December, Sunday

    Time Temperature Precipitation Wind Pressure Humidity
    00:00 +8°C° 0.2 mm 4 mps 751 mmHg 85%
    01:00 +8°C° 0.1 mm 4 mps 750 mmHg 85%
    02:00 +8°C° 0.1 mm 4 mps 750 mmHg 84%
    03:00 +8°C° 0.1 mm 4 mps 750 mmHg 84%
    04:00 +8°C° 0 mm 4 mps 750 mmHg 83%
    05:00 +7°C° 0 mm 4 mps 750 mmHg 82%
    06:00 +7°C° 0 mm 4 mps 750 mmHg 82%
    07:00 +8°C° 0.1 mm 5 mps 751 mmHg 78%
    08:00 +9°C° 0.1 mm 5 mps 751 mmHg 75%
    09:00 +10°C° 0.1 mm 6 mps 752 mmHg 72%
    10:00 +10°C° 0.3 mm 5 mps 752 mmHg 71%
    11:00 +12°C° 0.3 mm 5 mps 752 mmHg 71%
    12:00 +12°C° 0.3 mm 4 mps 752 mmHg 71%
    13:00 +12°C° 0.3 mm 5 mps 752 mmHg 73%
    14:00 +11°C° 0.3 mm 6 mps 752 mmHg 75%
    15:00 +11°C° 0.3 mm 6 mps 752 mmHg 77%
    16:00 +10°C° 0.2 mm 6 mps 753 mmHg 81%
    17:00 +9°C° 0.2 mm 6 mps 754 mmHg 86%
    18:00 +9°C° 0.2 mm 6 mps 754 mmHg 90%
    19:00 +9°C° 0 mm 5 mps 755 mmHg 90%
    20:00 +8°C° 0 mm 5 mps 755 mmHg 89%
    21:00 +8°C° 0 mm 4 mps 756 mmHg 89%
    22:00 +8°C° 0 mm 4 mps 756 mmHg 89%
    23:00 +7°C° 0 mm 4 mps 756 mmHg 89%
    Show more